Theta_e
314 314 310 305 294 290 285 287 292 291 291 293 296 296 294 294 296 292 305 305 306 308 314 324 337 338 340 342 342 343 345 345 346 346 347 347 347 347 347 348 349 347 347 347 347 347 346 347 347
312 313 307 296 289 285 285 288 290 292 294 294 295 293 293 292 297 299 300 304 304 306 310 322 333 332 334 335 337 337 340 342 343 343 344 345 345 346 346 346 346 346 347 347 347 347 347 348 347
311 308 301 291 286 285 286 289 291 291 294 292 293 295 292 293 296 297 299 302 300 300 304 318 325 324 326 326 327 329 331 334 336 338 339 339 340 342 344 344 344 344 345 346 346 346 348 347 348
306 303 295 289 287 289 290 290 292 293 292 295 292 291 293 296 297 298 299 299 296 298 301 312 318 319 320 320 321 322 324 326 329 331 332 333 336 337 338 340 342 343 343 345 345 345 347 347 348
300 296 290 286 287 290 290 291 293 292 291 291 292 290 291 295 296 296 295 296 295 296 299 303 313 313 315 316 317 317 318 320 323 322 324 328 331 332 334 334 336 339 341 343 344 344 346 345 346
297 293 287 285 286 290 291 292 292 290 291 292 291 290 291 294 293 293 294 292 294 294 297 298 305 309 310 311 312 313 314 315 316 316 318 319 319 323 326 326 328 332 336 338 341 343 344 344 344
294 291 286 284 286 289 292 294 292 291 291 291 293 288 289 291 293 293 292 292 293 294 295 294 296 301 305 307 308 309 309 310 311 311 311 312 315 319 314 314 318 321 322 325 330 337 340 342 343
294 293 286 286 287 288 293 292 292 291 291 292 291 288 286 290 293 292 290 291 291 292 293 292 293 295 295 296 304 305 306 306 307 307 307 306 309 309 308 308 312 315 316 316 321 327 333 336 339
297 291 287 287 288 291 293 291 290 290 290 288 289 289 291 292 292 289 287 288 289 291 291 291 291 291 293 294 296 298 301 302 303 303 305 302 303 302 301 304 308 310 311 312 319 320 319 327 330
293 289 290 291 290 290 293 292 291 290 287 286 286 288 290 290 288 287 285 286 285 286 289 290 289 290 291 294 292 291 293 293 295 297 298 301 300 300 300 300 303 307 307 310 314 312 311 309 311
291 288 292 293 294 294 293 290 291 290 287 288 287 287 288 287 286 286 285 285 285 284 287 288 289 289 289 290 290 289 290 290 291 293 295 298 298 297 297 295 296 300 303 305 305 305 304 305 305
292 293 293 296 296 293 291 291 290 290 291 290 289 289 286 286 286 285 285 285 285 285 286 287 287 288 288 289 288 288 289 290 289 291 293 295 293 294 294 293 294 297 299 300 301 301 302 302 303
292 292 295 295 295 294 293 291 291 290 288 288 287 287 286 286 285 285 285 285 285 285 285 286 287 287 287 288 287 287 288 288 289 290 292 293 292 292 291 290 292 294 298 298 298 299 299 299 301
291 293 294 294 294 293 292 289 289 289 285 285 287 285 285 285 285 284 284 284 284 285 285 286 287 287 287 287 286 286 287 288 288 289 290 292 292 289 289 289 290 292 294 296 296 297 297 297 298
292 290 291 290 292 292 292 289 288 288 286 285 284 284 284 284 285 284 284 284 284 284 285 286 287 287 286 286 287 286 287 288 287 288 289 290 289 288 286 287 289 290 292 293 295 295 296 295 297
289 288 286 289 291 290 290 286 291 287 285 284 283 282 283 284 284 284 284 283 283 284 284 286 288 286 286 286 286 286 286 286 286 286 286 287 287 287 285 285 286 289 287 288 291 294 294 293 295
287 285 284 288 291 289 288 287 290 286 285 285 283 283 283 282 282 282 283 282 283 283 284 284 285 285 286 286 285 285 285 284 284 284 284 285 285 286 284 284 284 285 285 286 287 289 292 293 294
285 283 284 283 287 287 286 288 291 287 284 286 285 283 283 282 282 282 282 282 282 282 283 283 285 285 285 285 284 283 283 283 282 282 283 284 284 284 283 283 283 283 283 282 283 284 285 289 293
287 283 283 285 287 286 286 288 291 291 285 285 283 282 283 283 282 283 282 282 281 281 282 283 283 284 283 282 281 280 280 280 280 281 283 283 283 283 282 282 281 281 280 281 282 283 283 285 291
284 283 283 285 286 286 285 285 289 291 288 287 287 284 283 283 281 282 281 280 281 282 282 282 282 283 283 282 281 281 279 279 280 281 280 281 282 282 281 281 280 280 280 280 281 283 284 287 289
283 282 282 283 284 283 281 282 282 286 288 288 287 287 285 283 281 281 281 280 280 280 281 282 282 282 282 282 281 280 279 278 277 277 278 279 281 281 280 280 279 279 280 279 281 279 279 280 284
282 285 283 282 280 277 282 279 280 285 286 285 286 284 284 283 282 282 281 279 279 280 280 281 281 281 282 281 279 277 276 275 276 276 277 278 279 279 280 280 279 279 280 278 277 279 279 279 279
285 283 282 281 279 276 277 275 278 279 282 287 287 286 284 282 282 281 281 281 280 281 280 280 280 280 281 280 278 276 276 276 276 276 276 276 277 279 279 279 278 278 278 277 276 276 277 280 279
285 282 280 277 276 272 278 277 277 278 282 284 284 283 283 280 281 281 281 281 281 280 279 279 279 279 279 279 277 276 274 274 274 274 274 275 276 277 278 278 277 277 277 276 276 276 278 277 277
283 282 277 274 271 276 275 273 282 283 284 285 285 282 281 279 279 279 280 280 280 279 279 279 278 277 278 277 276 275 274 273 273 273 274 273 274 275 275 276 276 276 276 276 276 276 275 275 275
281 282 278 270 270 277 273 275 282 284 284 280 279 279 280 278 279 280 280 280 279 279 278 278 277 276 276 275 274 274 273 273 273 273 273 273 273 274 275 275 275 275 275 275 275 275 275 277 275
281 279 282 276 264 268 278 279 282 284 282 280 279 280 279 278 279 279 280 280 278 278 278 277 276 276 275 274 273 272 272 271 271 271 272 272 273 274 275 275 274 274 274 274 274 273 273 273 273
280 282 277 277 271 265 275 277 280 285 283 284 278 278 278 277 278 279 279 279 278 277 277 276 275 274 274 273 272 272 271 271 271 271 271 271 272 273 273 273 273 273 273 273 273 273 273 272 273
277 278 277 279 276 272 268 280 283 285 286 286 281 280 278 278 278 279 279 278 278 277 276 274 273 273 272 272 271 270 270 270 270 270 270 271 271 272 272 272 272 272 272 272 272 272 272 271 272
280 280 281 278 275 273 273 280 283 285 286 283 281 280 278 278 278 279 278 277 276 275 275 273 272 271 271 271 270 269 269 269 269 269 269 271 270 271 271 271 271 270 270 271 270 270 271 271 270
Wind_Speed
2 5 3 5 5 7 1 2 1 2 3 4 3 9 9 4 3 4 5 6 9 8 10 11 15 17 17 18 19 19 17 12 11 11 11 11 12 11 11 12 9 8 11 11 12 12 12 11 11
2 3 5 3 7 4 4 4 4 3 7 7 7 2 6 3 2 3 4 9 9 7 7 8 17 19 20 20 19 20 18 17 17 16 15 15 15 15 14 15 14 13 13 14 14 14 13 11 10
2 4 4 6 4 3 4 3 5 2 6 1 5 6 3 1 1 4 2 7 7 7 7 9 17 20 21 22 21 21 21 21 20 19 18 18 18 18 17 15 14 16 16 16 16 16 14 14 12
3 5 5 6 2 3 2 4 4 7 1 6 4 8 3 0 0 2 4 4 3 7 8 12 19 21 22 22 23 23 22 22 22 22 22 22 20 19 20 20 19 17 16 18 17 17 15 14 14
5 3 5 4 2 1 3 1 8 4 3 3 2 6 5 2 4 5 4 5 6 7 7 8 19 21 22 22 22 22 22 21 21 21 22 21 21 22 21 21 21 22 20 19 19 19 15 15 15
5 4 5 2 3 2 3 2 5 3 3 5 5 7 5 4 4 3 5 6 6 6 6 7 14 20 22 22 22 22 22 22 22 22 22 22 23 22 22 24 25 25 24 24 22 20 18 16 15
7 5 5 5 4 1 4 6 7 6 6 5 9 7 3 4 5 5 5 6 6 6 7 6 7 10 17 20 21 21 21 21 21 22 23 21 22 22 24 24 24 24 24 24 26 25 20 18 17
5 5 4 3 5 5 6 3 3 3 3 3 2 7 6 7 9 6 5 6 6 4 5 5 5 7 7 7 19 20 21 21 20 21 22 21 19 22 22 22 23 24 25 25 24 24 25 24 21
3 5 2 7 7 5 6 5 1 1 6 1 2 4 4 11 9 6 3 3 4 4 6 5 6 6 6 7 9 13 16 19 17 15 18 12 8 10 12 19 22 23 23 24 22 23 24 25 19
5 4 7 5 5 3 4 4 8 5 3 3 0 1 4 7 6 7 5 5 3 4 4 5 7 7 6 7 6 6 6 5 6 6 6 5 6 8 11 13 19 20 22 22 22 22 22 17 10
1 3 3 3 4 3 3 3 5 7 6 9 12 14 8 5 6 8 6 5 5 2 3 5 6 6 7 6 4 3 3 3 4 7 6 5 5 5 6 6 7 7 13 7 11 10 7 10 8
2 0 2 2 3 2 2 7 5 9 5 1 8 14 8 9 9 8 7 7 6 5 4 5 6 6 6 4 4 5 4 4 4 5 5 3 3 4 7 5 7 7 6 8 7 6 9 10 10
2 1 3 2 4 5 5 5 8 9 1 4 11 9 10 10 9 7 7 6 6 6 4 5 6 6 5 6 4 3 4 4 5 5 6 4 4 4 4 5 6 7 7 8 8 8 8 9 10
0 3 5 6 6 4 5 2 4 2 6 7 12 11 9 9 8 5 6 6 6 7 6 4 5 4 4 3 3 3 3 4 4 4 5 5 4 4 6 6 6 7 7 8 9 8 8 8 8
1 5 6 3 3 4 5 6 11 4 7 9 9 7 8 10 10 11 9 7 7 4 5 4 4 4 4 4 4 4 4 4 4 4 5 4 5 4 5 4 5 5 8 12 10 10 8 8 8
4 4 5 2 4 1 4 11 7 8 12 12 10 9 10 10 10 8 8 7 6 6 6 5 4 3 2 2 2 3 3 3 3 4 4 4 5 6 5 5 5 5 7 7 9 9 10 10 10
6 4 3 9 6 3 5 11 7 7 9 11 13 14 13 10 9 7 8 8 8 8 7 6 5 4 3 2 2 3 3 3 4 4 4 5 5 5 4 4 5 7 6 6 8 9 10 10 11
5 4 5 8 3 4 5 18 13 8 12 19 16 14 14 14 14 10 10 8 8 7 7 5 4 4 2 2 3 3 3 3 3 4 3 5 3 5 6 6 7 8 7 6 6 10 10 13 12
4 4 8 6 5 4 11 14 22 9 11 15 12 14 17 18 9 10 9 8 7 6 7 6 4 2 2 1 2 2 4 4 2 3 5 6 5 6 6 5 7 8 8 9 10 10 12 10 10
4 3 9 9 1 6 11 17 16 17 12 14 16 17 20 16 13 15 12 9 9 8 7 5 4 4 3 2 3 3 3 4 4 3 5 5 5 5 7 5 7 8 8 8 9 9 10 11 8
4 6 6 8 6 5 8 10 6 7 8 8 10 11 15 19 19 14 13 11 8 9 8 7 3 3 3 3 2 2 3 3 2 3 4 3 6 6 7 6 7 9 8 7 7 10 13 13 10
4 5 3 4 5 5 5 14 5 7 12 7 9 11 13 16 15 15 16 10 9 9 7 7 3 3 3 3 2 2 2 3 3 4 4 6 6 7 7 6 8 10 7 8 8 9 10 11 14
8 3 2 1 3 4 4 6 8 3 9 19 9 13 14 15 19 19 18 14 9 8 8 7 3 2 3 3 2 2 4 4 4 4 6 7 6 6 7 8 9 10 7 9 11 12 12 10 12
4 3 5 4 2 3 6 8 5 7 10 8 6 7 9 11 14 13 13 11 8 7 7 6 3 3 3 3 3 4 6 6 6 7 7 6 6 6 7 9 8 9 10 10 11 13 12 12 13
3 6 4 6 3 11 4 3 13 9 12 10 10 5 9 10 12 14 17 13 10 9 8 6 4 3 4 4 4 5 7 6 7 8 8 10 8 8 9 9 10 9 11 12 14 12 14 15 14
7 8 8 9 5 10 2 12 10 11 9 6 5 8 7 10 13 16 16 14 11 9 8 7 4 3 4 4 5 5 6 4 6 7 8 9 9 9 11 11 12 13 13 13 14 12 12 14 12
6 7 3 6 3 3 7 10 8 10 10 8 8 6 10 11 13 16 14 12 9 8 8 7 5 4 3 5 5 5 5 6 7 10 9 9 11 11 14 14 15 15 15 15 15 13 15 15 15
4 4 5 2 3 7 12 17 15 14 10 11 9 11 9 9 12 13 15 13 8 7 7 6 4 3 3 4 4 6 6 6 8 9 11 12 12 14 15 16 16 16 15 15 16 15 15 16 14
4 3 1 2 6 7 4 17 6 8 10 12 11 11 11 13 14 14 13 11 9 7 7 6 4 3 3 3 5 5 6 7 9 10 11 12 13 15 16 17 17 17 17 16 16 17 19 19 17
2 8 12 8 8 4 4 30 2 7 10 7 8 11 8 11 13 14 13 10 9 10 8 7 4 2 3 5 5 6 7 8 9 10 12 12 14 15 16 17 18 18 18 17 18 19 18 18 19
Wind_Direction
105 119 89 42 58 67 141 213 202 182 91 344 36 105 123 58 80 188 196 359 345 350 344 349 25 32 31 32 37 35 33 19 353 334 324 319 314 310 305 300 299 303 300 301 307 310 307 305 305
116 120 45 78 81 67 264 264 182 160 151 158 76 50 53 88 18 88 45 340 349 346 341 1 37 41 42 43 40 36 28 29 22 16 8 353 337 325 316 310 311 314 307 306 306 306 306 298 294
128 55 79 87 99 154 181 212 156 80 154 95 97 59 91 132 245 109 353 343 344 4 2 23 46 44 43 43 41 38 35 30 24 20 15 9 4 356 342 330 323 315 310 306 303 304 303 303 294
59 14 39 83 147 220 196 183 143 131 106 59 114 79 69 67 111 110 30 352 28 17 13 30 44 46 42 40 39 36 33 31 29 27 19 11 6 6 359 353 340 320 309 304 302 299 299 297 300
39 57 52 64 301 256 235 209 148 139 114 105 145 175 138 86 108 79 52 40 49 30 20 27 48 46 44 42 40 37 35 34 33 26 22 18 15 11 6 3 356 347 331 311 303 299 299 295 292
46 94 65 197 257 256 273 170 126 119 147 162 91 129 184 132 134 79 68 59 50 48 25 33 39 45 45 43 41 40 38 35 31 26 23 22 18 16 11 8 6 0 352 342 324 303 299 294 289
114 86 172 172 208 271 203 149 154 161 154 202 152 135 194 171 180 112 95 71 53 42 43 30 28 37 43 42 39 37 36 36 35 31 28 21 18 20 9 6 3 360 355 353 350 338 307 290 288
104 95 126 190 190 241 193 105 119 158 185 75 146 183 204 199 164 135 100 86 69 59 63 45 39 37 36 33 33 31 31 29 29 28 26 24 21 15 8 2 358 357 354 352 348 350 341 330 299
132 61 176 197 158 234 168 143 50 65 123 111 265 173 219 139 138 141 118 72 42 46 40 38 35 38 32 52 31 26 25 22 21 19 18 16 15 9 9 357 353 353 352 349 351 351 351 344 328
79 104 219 189 199 222 173 162 166 153 158 227 309 65 118 126 151 153 143 128 82 44 28 31 35 31 32 37 27 23 18 6 5 3 2 14 11 3 2 357 353 347 346 346 351 347 348 350 344
139 172 215 250 219 204 181 142 168 145 220 203 197 179 167 143 156 157 152 144 139 126 64 41 38 36 38 25 17 15 8 359 353 357 358 356 8 2 0 349 347 338 337 335 344 342 343 339 338
33 25 224 288 231 140 246 122 229 199 212 339 195 164 158 164 175 165 162 161 141 104 70 47 39 36 35 33 23 10 1 3 350 341 343 352 4 8 353 341 337 333 330 326 331 327 323 330 326
106 295 307 282 286 248 117 223 239 241 259 102 133 149 168 175 180 180 162 151 137 118 98 54 49 39 25 33 13 4 356 357 342 338 342 5 7 354 344 341 334 329 324 321 321 316 311 316 314
197 260 254 257 244 246 198 239 355 268 119 130 154 176 175 178 176 142 167 160 141 140 112 104 79 54 44 43 12 355 359 336 335 323 325 354 6 353 358 335 326 328 328 314 307 303 298 298 300
300 322 316 210 204 242 151 279 239 141 144 162 184 192 186 200 184 186 179 165 154 138 118 101 104 51 35 16 359 355 345 350 330 314 325 15 3 12 347 328 323 316 328 319 309 308 295 294 287
25 53 2 215 154 5 134 269 264 168 160 198 201 202 200 208 204 190 171 155 156 147 141 123 112 92 24 342 330 326 325 321 312 312 304 355 359 7 350 335 315 320 322 306 309 301 299 301 296
7 277 283 312 199 131 170 269 250 166 191 214 210 207 207 211 206 185 177 168 169 164 152 151 171 179 202 217 244 267 285 312 301 302 303 347 360 357 340 324 318 318 309 318 313 309 300 291 290
239 279 262 245 223 192 220 263 264 205 200 221 217 208 208 209 206 185 180 176 169 166 159 162 179 196 225 238 279 259 255 259 265 289 296 339 340 343 337 329 329 328 317 314 313 302 294 289 283
165 199 241 252 239 240 247 248 271 251 219 235 220 207 212 212 193 185 181 175 164 175 166 164 160 213 188 210 318 294 269 284 256 290 319 335 328 334 323 317 328 317 315 310 305 297 292 287 296
165 226 264 280 308 190 268 257 260 254 244 223 219 214 215 202 188 187 181 176 178 176 173 166 184 214 203 174 219 227 255 271 268 288 311 308 306 305 310 311 304 305 294 289 288 288 305 291 292
213 195 238 239 327 253 298 266 239 274 266 245 223 221 214 205 197 188 187 187 179 183 183 180 188 233 219 209 241 261 263 277 254 254 271 269 283 279 285 280 293 295 278 280 305 302 293 292 288
243 212 236 290 8 259 24 290 243 245 273 245 236 213 210 201 198 186 187 186 186 194 178 180 187 230 228 221 236 236 228 251 240 284 271 283 273 274 267 264 273 279 271 288 296 288 284 292 286
224 136 161 125 224 347 241 280 259 21 262 265 250 227 216 201 190 187 187 183 191 171 181 183 189 259 260 248 245 275 280 246 257 263 273 280 268 255 274 271 270 280 280 288 290 282 274 262 275
127 92 60 59 64 292 223 190 216 186 208 253 249 228 207 195 197 188 175 169 179 170 171 181 196 249 276 281 295 299 280 293 302 310 305 298 294 287 270 272 281 284 282 280 284 276 273 279 271
102 74 320 328 350 239 162 219 252 229 223 222 250 269 217 189 182 179 177 179 176 176 183 184 202 263 286 305 303 290 274 279 284 296 296 297 293 284 279 284 287 282 277 276 277 275 278 272 264
177 169 167 229 229 278 346 246 265 227 255 256 240 249 225 186 189 192 183 178 177 180 181 180 196 256 289 299 291 281 288 290 279 279 286 288 284 287 290 285 281 282 281 279 276 273 272 274 278
184 191 170 99 112 346 239 275 281 260 275 261 256 244 228 196 194 190 178 178 177 175 181 180 195 238 267 286 288 294 280 274 281 290 287 283 288 292 293 291 288 284 280 277 276 271 271 268 270
174 172 79 8 253 263 268 275 252 242 238 241 233 230 224 199 198 192 182 179 175 173 166 165 188 248 279 287 275 286 283 281 282 287 287 287 290 291 290 290 287 286 282 282 278 272 269 269 266
132 217 101 155 161 200 275 266 207 228 195 223 223 223 209 199 199 195 186 173 170 161 166 177 188 242 274 278 269 271 286 292 288 286 289 289 290 290 290 290 289 288 286 283 278 272 273 269 268
220 199 174 195 228 255 140 271 205 211 214 220 226 232 212 202 195 193 183 161 166 174 178 183 191 237 250 252 269 293 293 293 291 289 291 295 293 290 291 292 293 293 289 286 280 277 274 271 269